sat.trackr.live / text

‹ back to catalog

STARLINK-35693

NORAD 66490 · 2025-263F

PAYLOAD ACTIVE UNKNOWN

§ Identity

Operator
Country
US
Launch date
2025-11-15
Launch site
AFETR
Launch vehicle
Mass (kg)
RCS (m²)

Purposes: comms

External: N2YO · Heavens-Above · Gunter

§ Orbital elements

Epoch: 2026-05-24T17:54:28.236096Z

Period
94.27 min
Inclination
43.0003°
Eccentricity
0.0001244
Mean motion
15.27590314 rev/d
Perigee alt
482.2 km
Apogee alt
483.9 km
Semi-major
6,861.2 km
B*
6.8688e-4
RAAN
280.9234°
Arg perigee
272.7767°
Mean anomaly
87.2942°
Rev number
3,053

§ Raw data

STARLINK-356931 66490U 25263F   26144.74616014  .00018693  00000+0  68688-3 0  99942 66490  43.0003 280.9234 0001244 272.7767  87.2942 15.27590314 30534

JSON: /api/v1/satellites/66490 · /tle

For live sub-satellite position, see the globe view (requires WebGL).

§ Visibility from observer

Set your observer location to see the next 7 days of passes ≥ 10°. The values pass through the URL so the page stays shareable.

No JS? Fill the form by hand. The geolocation button needs JavaScript.